Regional Weather Roundup
Issued by NWS

Home | Current Version | Previous Version | Text Only | Print | Product List | Glossary On
Versions: 1 2 3 4 5 6 7 8 9 10 11 12 13 14 15 16 17 18 19 20 21 22 23 24 25 26 27 28 29 30 31 32 33 34 35 36 37 38 39 40 41 42 43 44 45 46 47 48 49 50
468
ASUS45 KTFX 030610
RWRMT
MONTANA REGIONAL WEATHER ROUNDUP
NATIONAL WEATHER SERVICE GREAT FALLS MT
1100 PM MST FRI DEC 02 2016

NOTE: "FAIR" INDICATES FEW OR NO CLOUDS BELOW 12000 FEET WITH NO
SIGNIFICANT WEATHER AND/OR OBSTRUCTIONS TO VISIBILITY.

MTZ001>007-043-030700-
WEST OF THE DIVIDE

CITY           SKY/WX    TMP DP  RH WIND       PRES   REMARKS
KALISPELL      FLURRIES  31  29  92 S10       30.04F WCI  22
MISSOULA       CLOUDY    31  26  82 SE3       30.09F
BUTTE          CLOUDY    26  17  68 CALM      30.03F
MULLAN PASS    LGT SNOW  22  20  92 VRB7      29.95F FOG     WCI  13
ANACONDA         N/A     28  16  59 S13G20    30.04F WCI  18
DEER LODGE       N/A     27  23  86 CALM      30.07F
EUREKA           N/A     34  28  80 SE16      30.00F WCI  23
HAMILTON         N/A     36  18  48 S10G16    30.08F WCI  28
LIBBY            N/A     32  30  93 CALM      30.00F
PLAINS           N/A     38  23  55 CALM      30.07
RONAN            N/A     32  26  78 CALM      30.08S
$$

MTZ008-052>055-030700-
SOUTHWEST MONTANA

CITY           SKY/WX    TMP DP  RH WIND       PRES   REMARKS
BOZEMAN        CLOUDY    27  21  78 NE3       30.07F
DILLON         CLOUDY    28  13  53 SW15      30.07F WCI  16
W YELLOWSTONE  CLOUDY    16  14  93 SW12G22   30.13F FOG     WCI   3
ENNIS          HAZE      23  19  86 S18       30.15F VSB 3/4 WCI   9
$$

MTZ009-010-012-014-046-048-049-054-030700-
EAST SLOPES AND CENTRAL MONTANA

CITY           SKY/WX    TMP DP  RH WIND       PRES   REMARKS
CUT BANK       PTCLDY    32  20  61 W35G49    29.74F WCI  17
GREAT FALLS    CLOUDY    30  21  69 SW25G31   29.86F WCI  16
MALMSTROM AFB  CLOUDY    29  24  82 SW14      29.87F WCI  18
HELENA         CLOUDY    33  19  56 CALM      30.01F
AUGUSTA          N/A     33  18  55 W30G39    29.83F WCI  18
BOWMANS CRNR     N/A     29  17  61 SW20G26   29.87F WCI  16
CHOTEAU          N/A     34  19  55 SW10G21   29.82F WCI  26
CONRAD           N/A     27  24  88 S7        29.83F WCI  20
FAIRFIELD        N/A     33  17  53 SW24G32   29.83F WCI  20
POWER            N/A     29  19  68 S14G23    29.84F WCI  18
RAYNESFORD       N/A     32  21  65 SW20G26   29.87F WCI  20
ULM            MOCLDY    33  22  63 W13G20    29.89F WCI  24
$$

MTZ011-013-016-021-045-047-050-051-030700-
NORTH CENTRAL MONTANA

CITY           SKY/WX    TMP DP  RH WIND       PRES   REMARKS
HAVRE          CLOUDY    31  29  92 SW22      29.83F WCI  18
LEWISTOWN      CLOUDY    31  18  58 SW12      29.87  WCI  22
N BAR RANCH      N/A     23  12  63 CALM      29.89F
CHINOOK          N/A     34  28  80 SW12      29.85F WCI  25
DENTON         CLOUDY    33  26  75 W18G38    29.84F WCI  21
GEYSER         MOCLDY    33  23  67 SW16G26   29.84F WCI  22
GRASS RANGE    MOCLDY    25  16  68 NW1       29.85F
JUDITH GAP     CLOUDY    28  19  69 W23G29    29.88F WCI  13
ROY            MOCLDY    33  17  53 MISG      29.86F
STANFORD       CLOUDY    32  23  68 W9        29.85F WCI  24
WINIFRED       CLOUDY    32  20  61 MISG      29.86F
$$

MTZ017>020-022>027-061-062-030700-
NORTHEAST MONTANA

CITY           SKY/WX    TMP DP  RH WIND       PRES   REMARKS
GLASGOW        CLEAR     21  18  88 S12       29.89F WCI   9
JORDAN           N/A     24  16  71 W8        29.93F WCI  15
SIDNEY         CLEAR     19  18  95 S9        30.02F WCI   8
WOLF POINT     CLEAR     29  23  78 S8        29.95F WCI  21
PLENTYWOOD       N/A     19  19 100 E6        29.95F WCI  11
POPLAR           N/A     27  21  80 CALM      29.96F
SCOBEY           N/A     19  12  74 S1        29.89
$$

MTZ028>42-056>058-030700-
SOUTHCENTRAL AND SOUTHEAST MONTANA

CITY           SKY/WX    TMP DP  RH WIND       PRES   REMARKS
BAKER          CLEAR     23  18  81 S12       30.03F WCI  12
BILLINGS       CLEAR     31  17  56 SW13      29.96F WCI  21
LIVINGSTON     CLOUDY    31  11  43 SW35G47   29.99F WCI  15
MILES CITY     CLEAR     25  20  81 S12       29.99F WCI  14
BIG TIMBER     MOCLDY    32  12  43 W33G53    29.97F WCI  17
EKALAKA          N/A     31  20  63 SE13      29.99  WCI  21
FORSYTH          N/A     28  21  74 W6        29.98F WCI  22
HARLOWTON      MOCLDY    29  20  66 W28G35    29.91F WCI  15
LAUREL           N/A     31  11  43 SW10      29.95F WCI  22
ROUNDUP          N/A     27  11  51 S8        29.87S WCI  19
$$

REGIONAL REPORTS...DAKOTAS

CITY           SKY/WX    TMP DP  RH WIND       PRES   REMARKS
WILLISTON      CLEAR     23  20  88 S5        30.02F
MINOT          CLEAR     26  23  88 SE8       30.08F WCI  18
DICKINSON      CLEAR     16  14  92 S10       30.04F WCI   4
BEACH            N/A     18  16  93 S5        30.05F
CROSBY           N/A     23  23 100 S14       30.01F WCI  11
TIOGA            N/A     19  19 100 CALM      30.03F
WATFORD CITY     N/A     25  23  93 SE3       30.03F
BISMARCK       CLOUDY    24  22  91 SE6       30.16F WCI  17
GRAND FORKS    CLOUDY    30  21  69 SW8       30.25S WCI  22
FARGO          CLOUDY    27  18  69 SW7       30.28F WCI  19
BUFFALO SD       N/A     23  20  88 S7        30.00F WCI  15
RAPID CITY     CLEAR     20  17  88 SE5       30.12F
$$

REGIONAL REPORTS...WYOMING/IDAHO/WASHINGTON

CITY           SKY/WX    TMP DP  RH WIND       PRES   REMARKS
GILLETTE       CLEAR     26  18  71 S20       30.00F WCI  12
SHERIDAN       CLEAR     16  10  77 NW5       29.97F
BUFFALO WY     CLEAR     23   7  50 SW5       29.96F
YELLOWSTONE LA   N/A     11   8  88 CALM      30.10F
IDAHO FALLS    CLOUDY    26  19  74 S6        30.24F WCI  19
SALMON         CLOUDY    30  19  64 E3        30.14F
BOISE          CLOUDY    32  25  75 SE10      30.27F WCI  24
SPOKANE        FLURRIES  35  33  92 S14       30.03F WCI  26
$$

REGIONAL REPORTS...ALBERTA

CITY           SKY/WX    TMP DP  RH WIND       PRES   REMARKS
EDMONTON       CLEAR     23  21  93 SE3       29.65F
CALGARY        MOCLDY    39  19  45 W15       29.66R WCI  31
LETHBRIDGE     PTCLDY    37  21  52 W29G41    29.72F WCI  25
MEDICINE HAT   CLOUDY    37  25  60 SW13G18   29.70F WCI  29
WATERTON GATE    N/A     34  19  55 SW33G48     N/A  WCI  19
CARDSTON         N/A     37  18  44 W24G41      N/A  WCI  26
MILK RIVER       N/A     30  21  69 SW10        N/A  WCI  21
$$

REGIONAL REPORTS...SASKATCHEWAN

CITY           SKY/WX    TMP DP  RH WIND       PRES   REMARKS
SWIFT CURRENT  CLOUDY    27  23  86 S16       29.72F WCI  14
REGINA         MOCLDY    23  23 100 SE15      29.90F WCI  10
SASKATOON      MOCLDY    27  19  74 SE9       29.84F WCI  17
CYPRESS HILLS    N/A     25  21  86 SW7         N/A  WCI  17
VAL MARIE        N/A     21  19  93 SW8         N/A  WCI  12
ROCKGLEN         N/A     23  21  93 S9          N/A  WCI  13
ASSINIBOIA       N/A     27  25  93 SE9         N/A  WCI  17
$$




USA.gov is the U.S. government's official web portal to all federal, state and local government web resources and services.